Wind_Speed
14 14 13 12 10 9 8 7 7 6 6 6 7 8 9 8 9 9 8 7 5 4 4 5 5 4 3 2 2 1 1 1 2 2 3 4 4 4 4 4 4 5 5 5 5 5 5 5 5
15 14 14 13 11 10 10 9 8 8 7 7 8 9 9 10 9 9 9 7 6 5 5 5 4 3 2 1 1 1 0 2 3 3 3 4 5 5 6 6 5 5 5 5 5 6 6 6 6
15 15 15 14 13 12 11 10 9 8 8 7 8 10 10 10 9 9 9 8 6 5 5 5 4 3 2 2 1 0 1 1 3 4 4 5 5 6 6 6 6 6 6 6 6 6 6 7 7
17 16 16 15 15 13 12 11 10 9 8 8 8 10 10 10 10 10 9 8 6 6 6 5 4 3 2 2 1 1 0 2 3 4 5 5 6 7 7 7 7 7 7 7 7 7 7 7 8
18 17 17 16 16 14 13 12 10 10 9 9 9 10 10 10 11 11 10 8 7 7 6 6 5 3 3 3 2 1 1 2 3 4 5 6 7 7 8 8 8 8 8 8 7 7 7 8 8
19 18 18 17 17 16 14 12 11 10 10 9 9 10 10 10 11 11 10 9 8 7 7 6 5 4 3 3 3 2 2 3 4 5 6 6 7 8 8 8 8 8 9 9 8 8 8 8 8
20 19 19 18 17 16 15 13 12 11 11 10 10 10 11 11 11 11 11 9 8 8 7 6 5 4 4 3 3 2 2 3 4 5 6 7 7 8 8 8 9 9 9 9 9 9 8 8 8
21 20 20 19 18 17 15 14 13 13 12 11 10 10 10 11 11 11 11 11 10 9 8 7 6 5 4 4 3 3 3 4 5 6 6 7 7 8 8 9 9 10 10 10 9 9 8 8 8
20 21 21 20 19 18 16 15 14 13 12 12 11 11 11 11 11 11 11 11 10 9 8 7 6 5 5 4 3 3 3 4 5 6 7 7 7 8 8 9 10 10 10 9 9 8 7 7 7
20 21 21 20 20 19 17 16 15 14 14 13 13 13 12 12 12 11 11 11 10 9 8 7 6 6 5 4 3 3 4 5 5 6 6 7 8 8 9 10 10 10 10 9 8 8 7 7 7
20 20 20 20 20 19 18 17 15 15 14 15 15 14 13 13 13 12 12 11 10 9 9 8 6 6 5 4 4 4 4 5 6 6 7 7 8 9 9 10 10 10 10 9 8 7 7 6 6
19 20 20 20 19 19 18 17 16 15 15 15 16 15 15 14 13 13 12 11 10 9 9 8 7 6 5 4 4 4 5 5 6 7 7 8 9 9 9 10 10 10 10 9 8 7 6 6 6
19 20 20 19 19 18 17 16 16 15 15 15 15 15 15 15 13 13 12 10 10 9 9 8 7 6 5 4 4 4 5 6 7 7 7 8 9 9 10 10 11 11 10 9 8 7 6 6 6
19 20 19 19 19 18 17 16 16 15 14 15 16 16 15 15 14 13 12 11 11 10 9 9 7 6 5 5 4 4 5 6 7 7 8 8 9 9 10 10 11 11 10 9 8 6 6 5 5
19 19 19 19 19 19 18 17 16 16 16 15 15 15 15 14 13 13 13 12 12 11 10 9 7 6 5 4 4 4 5 6 7 7 7 8 8 9 9 10 10 11 10 8 7 6 6 5 5
19 19 19 19 19 19 19 18 17 17 16 17 16 15 15 15 14 13 13 12 11 11 10 9 8 6 5 4 4 4 5 6 6 6 7 7 8 8 9 9 10 10 9 8 7 6 6 5 4
18 19 20 19 19 20 20 18 18 18 17 17 17 16 16 15 14 13 12 12 11 11 10 9 8 6 5 4 4 4 4 5 5 5 6 7 7 8 8 9 9 9 9 8 7 6 5 5 4
18 19 20 20 20 19 19 18 18 19 18 18 17 17 17 16 15 14 13 12 11 11 11 9 7 6 5 4 4 4 4 4 4 5 6 6 7 7 8 8 8 9 8 8 7 6 6 5 4
16 17 18 18 19 19 18 17 17 18 17 17 17 17 17 17 15 14 14 12 11 10 10 9 7 7 6 5 5 4 4 3 4 4 5 5 6 6 7 8 8 9 8 8 7 6 6 5 4
15 16 18 18 18 18 18 17 17 17 17 16 16 16 16 16 15 14 14 13 12 11 10 9 8 7 6 6 5 4 3 3 3 3 4 5 6 6 7 8 8 8 8 8 8 7 6 5 5
14 15 16 17 17 18 17 17 16 17 16 16 16 17 16 16 15 13 14 14 12 12 10 10 8 7 6 6 5 4 3 3 3 3 4 4 5 6 7 8 8 9 9 8 8 7 7 6 5
14 15 16 16 17 17 17 17 17 16 17 17 17 17 16 16 15 14 14 13 13 12 11 10 9 7 6 6 5 3 2 2 2 3 3 4 5 6 6 7 8 9 9 9 9 8 7 7 6
13 14 15 16 17 17 16 17 16 17 17 17 18 17 16 15 15 14 13 14 13 12 11 10 9 8 7 6 5 4 2 2 2 2 3 4 5 6 6 7 8 8 8 9 9 8 8 7 7
13 13 14 15 15 15 16 16 16 17 16 17 17 17 16 16 15 15 14 14 14 13 12 10 9 8 7 7 6 4 3 2 2 2 2 3 5 6 6 7 7 8 8 8 8 8 8 8 7
13 13 13 14 14 14 14 15 16 16 16 16 17 17 17 16 15 15 14 14 14 14 13 11 10 9 8 7 6 5 4 3 3 3 3 3 4 5 5 6 6 7 8 8 8 8 8 8 8
12 13 14 13 13 13 13 14 15 15 16 16 16 17 17 17 16 16 15 14 14 14 14 12 11 10 9 8 7 6 5 4 4 3 3 3 4 4 4 5 6 6 7 7 8 8 8 8 8
12 12 13 13 12 13 13 13 13 15 16 16 16 17 17 16 15 16 16 15 14 14 14 13 12 11 10 9 7 6 5 5 4 4 4 3 4 4 4 5 5 6 6 7 7 8 8 8 7
11 12 12 12 11 11 12 12 13 14 16 17 17 16 16 15 15 16 15 15 14 15 15 14 13 12 10 9 8 7 6 6 5 4 3 3 3 3 4 4 5 5 6 7 7 7 7 7 7
11 11 12 11 11 11 11 11 12 14 16 16 17 16 15 15 15 15 16 15 15 15 15 15 14 12 11 10 9 8 7 7 6 5 4 3 3 4 4 4 5 5 6 6 6 7 7 7 7
11 11 11 11 11 11 11 11 12 14 16 17 17 17 16 16 16 15 15 15 15 15 15 14 14 12 11 10 10 9 8 8 7 6 6 5 5 5 5 5 5 5 6 7 7 7 7 7 7
Wind_Direction
239 238 237 235 236 235 236 234 234 224 217 209 199 193 191 193 191 191 185 183 180 176 176 172 163 157 155 151 155 136 92 49 27 15 7 5 7 1 350 342 332 317 307 302 295 285 284 278 267
238 236 235 233 232 233 236 235 234 228 225 215 204 198 196 192 188 187 184 185 185 184 181 178 169 164 166 167 160 135 56 32 22 12 5 5 5 358 349 338 328 316 307 301 293 283 277 273 267
236 233 232 231 230 232 234 235 237 232 223 213 207 203 196 192 189 187 186 186 188 187 183 178 177 183 183 176 186 145 36 22 19 13 3 357 356 348 344 336 328 320 313 303 297 289 279 273 268
235 232 230 230 230 232 232 234 237 230 219 210 207 203 198 195 194 192 191 190 189 189 183 177 181 189 193 188 192 195 20 9 1 357 354 349 349 344 339 334 327 320 315 309 299 289 280 273 267
234 231 229 228 229 231 231 231 233 231 221 212 205 200 199 196 194 193 190 189 189 188 181 176 183 185 202 204 194 206 303 334 342 342 342 342 342 340 337 333 328 323 318 312 304 295 284 274 266
232 230 228 227 229 230 229 228 228 227 218 213 208 201 199 195 193 194 191 190 189 186 179 180 188 192 203 208 217 249 289 312 327 334 336 337 338 337 335 330 326 323 319 315 307 299 287 278 269
230 227 226 226 227 228 226 225 225 219 217 217 213 206 202 196 195 197 195 193 188 186 184 189 200 207 212 222 236 256 279 309 325 330 331 332 333 334 334 332 329 325 321 317 312 303 291 282 272
227 226 224 223 223 223 222 221 220 218 218 217 215 205 200 195 196 197 195 192 189 190 193 202 208 209 215 228 242 269 291 311 321 327 330 331 332 334 336 334 330 325 323 319 314 305 293 283 273
223 223 222 220 219 220 219 219 219 217 218 217 215 210 203 198 197 196 193 191 193 196 201 208 206 207 214 229 250 279 296 311 321 328 332 334 336 336 335 334 333 329 325 321 316 309 299 287 275
220 220 220 218 217 216 216 218 220 220 219 216 214 210 204 201 200 199 194 194 197 201 204 206 207 210 220 236 259 281 296 310 323 330 334 336 337 335 334 334 333 330 328 324 319 312 304 295 279
219 218 217 216 214 213 215 217 220 220 217 215 212 211 207 204 201 198 197 198 200 203 206 204 207 215 228 242 266 284 296 308 320 325 329 332 334 334 334 335 334 332 331 327 322 312 302 298 286
217 216 215 214 213 213 215 216 218 220 223 218 214 215 209 204 201 200 203 197 198 200 202 204 210 216 230 250 269 283 297 307 317 322 326 329 333 334 335 336 335 335 333 329 325 317 304 295 285
215 214 214 213 213 214 216 216 216 217 217 214 209 209 208 208 207 204 202 199 198 200 203 209 215 221 235 255 271 284 294 303 314 322 327 328 332 336 339 340 338 338 336 332 328 321 310 299 286
213 213 213 212 211 212 214 215 212 214 215 212 208 207 206 206 205 204 200 201 201 202 206 213 220 227 240 255 270 283 294 307 314 319 324 329 334 339 342 343 343 342 339 335 332 325 316 308 295
211 211 212 209 210 210 213 215 213 213 211 207 207 205 205 205 206 203 201 202 203 206 210 216 225 232 242 254 270 283 298 308 312 315 324 333 338 341 343 344 345 345 343 339 335 330 321 312 300
209 209 208 208 209 209 212 213 213 212 209 208 207 205 205 205 205 203 205 205 207 212 214 216 223 233 243 257 273 288 304 311 314 320 329 334 338 340 341 342 345 348 349 346 342 337 330 323 310
208 209 209 207 208 210 213 216 212 212 210 209 208 209 208 207 205 204 206 209 210 212 211 216 223 234 245 253 267 286 303 308 315 326 333 337 339 341 344 346 348 350 351 353 352 348 341 334 321
205 209 210 210 208 209 213 214 213 212 211 210 208 208 209 207 207 206 206 212 213 211 212 214 221 235 246 253 265 280 292 302 313 327 336 343 346 347 351 355 356 356 357 0 358 354 354 351 337
203 207 208 209 207 209 211 210 209 212 212 211 210 208 209 208 208 208 210 213 213 212 212 210 217 230 242 250 256 267 278 295 313 326 339 348 353 357 0 2 1 1 4 5 2 358 360 0 354
202 205 209 208 209 210 210 208 205 211 213 209 209 205 205 206 206 209 211 211 210 208 210 209 217 227 237 245 250 259 274 291 313 329 346 358 5 7 9 7 6 7 9 10 8 5 5 4 1
199 200 204 204 206 207 207 209 211 210 209 209 207 205 206 204 204 207 206 207 210 211 213 215 217 224 233 241 247 258 274 290 315 335 357 6 13 14 14 14 13 14 15 16 16 16 12 9 6
196 198 201 202 203 205 206 210 212 210 211 211 209 208 207 205 207 207 204 206 209 211 213 215 219 227 235 239 243 248 269 294 326 349 8 14 14 14 16 15 15 16 18 20 22 23 21 16 13
198 198 203 203 204 205 210 214 212 210 210 210 208 208 208 205 205 207 209 210 210 210 212 216 221 228 235 240 242 245 268 291 312 347 6 12 11 10 13 14 14 17 19 21 23 23 22 18 18
200 202 203 204 206 210 212 215 214 210 210 209 208 209 208 208 208 209 212 213 212 213 215 218 221 226 234 236 239 243 255 279 302 331 349 1 8 10 15 15 15 19 20 20 21 22 22 20 22
198 199 200 203 207 212 212 214 211 209 207 206 205 206 207 209 210 211 211 213 212 213 215 219 221 225 230 236 238 239 250 264 284 312 325 338 354 359 9 15 17 19 22 24 23 22 21 23 24
197 197 198 205 210 212 212 211 209 207 208 208 206 205 207 209 211 213 214 215 215 215 216 217 221 226 230 235 237 238 249 257 270 292 303 318 341 350 1 9 13 17 22 23 23 23 23 23 22
194 201 203 207 211 213 212 210 210 209 209 210 207 206 208 211 214 215 215 217 217 216 217 216 220 224 229 234 237 239 247 252 265 285 293 307 328 335 345 357 1 10 16 17 17 18 20 20 20
198 197 198 201 203 210 214 215 214 213 210 207 206 208 212 215 216 216 215 216 218 218 219 218 222 227 231 231 235 238 241 249 261 276 283 311 325 325 327 335 344 353 1 4 5 9 12 13 13
201 201 202 205 205 205 212 217 217 213 209 207 208 211 213 216 216 217 215 215 219 218 218 221 225 229 231 231 232 236 238 246 257 263 273 295 308 309 316 321 328 333 341 349 355 359 0 2 2
204 206 208 210 212 211 215 219 214 211 211 209 208 210 213 214 216 218 216 218 220 219 219 224 227 228 230 233 238 239 240 248 256 259 270 280 292 293 295 303 315 326 334 343 347 347 346 347 348
Height
5875 5877 5878 5880 5882 5882 5882 5883 5883 5883 5884 5884 5884 5885 5886 5888 5889 5892 5890 5890 5890 5891 5891 5891 5892 5892 5892 5892 5892 5892 5892 5891 5891 5891 5890 5889 5888 5887 5887 5886 5886 5885 5884 5884 5884 5883 5883 5883 5883
5872 5874 5877 5879 5880 5880 5881 5881 5882 5882 5882 5883 5883 5884 5885 5886 5887 5888 5888 5889 5890 5890 5891 5891 5891 5892 5892 5892 5892 5892 5892 5891 5891 5890 5890 5889 5888 5887 5886 5885 5885 5884 5883 5883 5882 5882 5882 5881 5882
5870 5872 5875 5876 5877 5878 5879 5879 5880 5880 5881 5881 5882 5883 5884 5885 5886 5887 5888 5889 5889 5890 5890 5891 5891 5891 5892 5892 5892 5892 5891 5891 5891 5890 5889 5888 5887 5886 5885 5884 5883 5883 5882 5881 5881 5880 5880 5880 5880
5867 5869 5872 5874 5874 5875 5876 5877 5878 5879 5879 5880 5881 5882 5883 5884 5885 5886 5887 5888 5888 5889 5889 5890 5891 5891 5891 5891 5892 5891 5891 5891 5890 5889 5889 5888 5887 5886 5884 5883 5882 5881 5881 5880 5879 5879 5878 5878 5878
5864 5866 5869 5870 5871 5873 5874 5875 5876 5877 5878 5878 5879 5880 5881 5882 5883 5885 5886 5887 5888 5888 5889 5889 5890 5891 5891 5891 5891 5891 5891 5890 5890 5889 5888 5887 5886 5885 5883 5882 5881 5880 5879 5878 5877 5877 5876 5876 5876
5861 5863 5865 5867 5868 5870 5871 5873 5874 5875 5876 5877 5878 5879 5880 5881 5882 5883 5885 5886 5887 5888 5888 5889 5889 5890 5890 5891 5891 5891 5890 5890 5889 5888 5887 5886 5885 5884 5882 5881 5880 5879 5878 5876 5875 5874 5874 5874 5874
5858 5859 5861 5863 5866 5867 5869 5871 5872 5873 5874 5876 5877 5878 5878 5879 5881 5882 5884 5885 5886 5887 5888 5888 5889 5889 5890 5890 5890 5890 5890 5889 5889 5888 5887 5885 5884 5883 5881 5880 5878 5877 5876 5874 5873 5872 5872 5871 5871
5853 5856 5858 5860 5863 5865 5866 5868 5870 5871 5873 5874 5876 5877 5877 5879 5880 5881 5882 5884 5885 5886 5887 5888 5888 5889 5889 5890 5890 5890 5889 5889 5888 5887 5885 5884 5883 5881 5880 5879 5877 5875 5874 5872 5871 5870 5869 5869 5869
5848 5853 5854 5857 5860 5862 5864 5866 5867 5869 5871 5872 5874 5875 5876 5878 5879 5880 5882 5883 5884 5885 5886 5887 5887 5888 5888 5889 5889 5889 5889 5888 5887 5886 5885 5883 5882 5880 5879 5877 5876 5874 5872 5871 5869 5868 5867 5867 5867
5845 5848 5851 5854 5856 5859 5861 5863 5865 5867 5869 5871 5872 5874 5875 5876 5878 5879 5881 5882 5883 5884 5885 5886 5887 5888 5888 5888 5888 5888 5888 5887 5886 5885 5884 5882 5881 5879 5878 5876 5874 5873 5871 5869 5868 5866 5865 5865 5864
5841 5844 5847 5850 5853 5856 5858 5861 5863 5865 5867 5868 5870 5872 5873 5875 5876 5878 5879 5881 5882 5883 5884 5885 5886 5887 5887 5888 5887 5887 5887 5886 5885 5884 5883 5882 5880 5878 5877 5875 5873 5871 5869 5868 5866 5865 5864 5863 5863
5838 5841 5844 5847 5850 5853 5856 5858 5861 5863 5864 5866 5868 5870 5872 5874 5875 5877 5878 5879 5881 5882 5883 5885 5886 5886 5886 5887 5887 5886 5886 5885 5884 5883 5882 5881 5879 5877 5875 5873 5872 5870 5868 5866 5864 5863 5862 5861 5861
5835 5838 5841 5845 5848 5850 5853 5856 5858 5860 5861 5863 5866 5868 5870 5872 5874 5875 5877 5878 5880 5881 5883 5884 5885 5885 5886 5886 5886 5886 5885 5884 5884 5882 5881 5880 5878 5876 5874 5872 5870 5868 5866 5864 5863 5861 5860 5860 5859
5833 5836 5839 5842 5845 5848 5851 5853 5856 5858 5859 5861 5864 5866 5868 5870 5872 5874 5875 5877 5879 5880 5882 5883 5884 5884 5885 5885 5885 5885 5884 5883 5883 5881 5880 5879 5877 5875 5873 5871 5869 5867 5865 5863 5861 5860 5859 5858 5858
5830 5834 5837 5840 5843 5846 5849 5851 5853 5856 5857 5860 5862 5864 5867 5869 5870 5872 5874 5876 5878 5879 5881 5882 5883 5883 5884 5884 5884 5884 5883 5882 5882 5881 5879 5877 5876 5874 5872 5870 5868 5866 5864 5862 5860 5859 5858 5857 5857
5828 5832 5835 5838 5840 5843 5847 5849 5851 5853 5855 5858 5860 5863 5865 5867 5869 5871 5873 5875 5877 5878 5880 5881 5882 5882 5883 5883 5883 5883 5882 5881 5881 5879 5878 5876 5875 5873 5871 5869 5867 5865 5863 5861 5859 5858 5857 5856 5855
5826 5830 5832 5836 5838 5841 5844 5846 5849 5851 5853 5856 5858 5861 5864 5866 5868 5870 5872 5874 5875 5877 5878 5880 5881 5882 5882 5882 5882 5882 5881 5881 5880 5879 5877 5876 5874 5872 5870 5868 5866 5864 5862 5860 5859 5857 5856 5855 5854
5825 5827 5830 5833 5836 5839 5841 5844 5846 5849 5851 5854 5857 5859 5862 5864 5866 5868 5871 5873 5874 5876 5877 5879 5880 5881 5881 5881 5881 5881 5880 5880 5879 5878 5877 5875 5873 5871 5870 5868 5866 5864 5862 5860 5858 5857 5855 5854 5853
5822 5825 5828 5831 5833 5836 5839 5842 5844 5847 5850 5852 5855 5857 5860 5863 5865 5867 5869 5871 5873 5874 5876 5877 5879 5880 5880 5880 5880 5880 5880 5879 5878 5877 5876 5874 5873 5871 5869 5868 5866 5864 5862 5860 5858 5856 5855 5854 5853
5821 5824 5827 5829 5831 5834 5837 5840 5843 5845 5848 5851 5853 5856 5859 5861 5863 5866 5868 5870 5872 5873 5875 5876 5877 5878 5879 5879 5880 5879 5879 5878 5878 5877 5875 5874 5872 5871 5869 5868 5866 5864 5862 5860 5858 5856 5855 5853 5852
5819 5823 5825 5828 5830 5832 5836 5839 5841 5844 5846 5849 5852 5854 5857 5860 5862 5864 5866 5868 5870 5872 5874 5875 5876 5877 5878 5878 5878 5878 5878 5877 5877 5876 5875 5874 5872 5871 5869 5867 5866 5864 5862 5860 5858 5856 5855 5853 5852
5819 5821 5824 5826 5829 5831 5835 5837 5839 5842 5844 5847 5850 5852 5855 5858 5860 5862 5865 5867 5869 5871 5872 5874 5875 5876 5877 5877 5878 5878 5877 5877 5876 5875 5874 5873 5872 5871 5869 5867 5866 5864 5862 5860 5858 5856 5855 5853 5852
5818 5820 5822 5825 5827 5830 5833 5835 5838 5840 5842 5845 5848 5850 5853 5856 5858 5861 5863 5865 5867 5869 5871 5872 5874 5875 5876 5876 5876 5877 5877 5876 5876 5875 5874 5873 5872 5871 5869 5867 5866 5864 5862 5860 5859 5857 5855 5854 5852
5817 5820 5822 5824 5826 5829 5831 5834 5836 5838 5841 5843 5846 5848 5851 5854 5856 5859 5861 5863 5865 5867 5869 5871 5872 5873 5874 5875 5875 5875 5875 5875 5875 5874 5874 5873 5872 5870 5869 5867 5866 5864 5863 5861 5859 5857 5856 5854 5853
5816 5819 5822 5824 5826 5828 5830 5832 5835 5837 5839 5841 5844 5846 5849 5852 5855 5857 5860 5862 5864 5865 5868 5869 5871 5872 5873 5873 5874 5874 5874 5875 5874 5874 5873 5872 5871 5870 5869 5867 5866 5864 5863 5861 5859 5858 5856 5855 5853
5815 5818 5822 5824 5826 5827 5828 5830 5833 5835 5837 5839 5841 5844 5847 5850 5852 5855 5857 5860 5861 5863 5865 5867 5869 5870 5871 5872 5872 5873 5873 5873 5873 5873 5872 5871 5870 5869 5868 5867 5866 5864 5863 5861 5860 5858 5856 5855 5854
5814 5816 5820 5822 5823 5825 5827 5829 5831 5832 5834 5837 5839 5842 5845 5848 5850 5853 5855 5857 5859 5861 5863 5865 5867 5868 5869 5870 5871 5871 5872 5872 5872 5872 5871 5870 5869 5868 5868 5867 5865 5864 5863 5861 5860 5858 5857 5855 5854
5814 5815 5818 5820 5822 5824 5826 5827 5830 5831 5832 5835 5837 5840 5843 5845 5848 5850 5852 5855 5857 5859 5861 5863 5865 5866 5867 5868 5869 5870 5870 5871 5871 5870 5870 5869 5868 5868 5867 5866 5865 5864 5863 5861 5860 5858 5857 5855 5854
5813 5815 5816 5818 5820 5823 5825 5828 5827 5828 5831 5833 5835 5838 5840 5843 5845 5847 5850 5852 5854 5856 5859 5860 5862 5864 5865 5866 5867 5868 5868 5869 5869 5869 5868 5868 5867 5867 5866 5865 5864 5863 5862 5861 5859 5858 5857 5856 5854
5811 5813 5815 5817 5819 5820 5822 5827 5824 5826 5828 5830 5833 5835 5837 5840 5842 5845 5847 5849 5852 5854 5856 5858 5860 5861 5863 5864 5865 5866 5866 5867 5867 5867 5867 5866 5866 5865 5864 5864 5863 5862 5861 5860 5859 5857 5856 5855 5854